Theta_e
350 347 343 335 339 338 341 346 349 354 354 350 351 350 351 352 353 354 355 356 358 357 356 356 355 353 347 343 336 336 330 319 319 319 319 319 318 318
353 351 348 349 350 350 350 352 351 351 357 355 354 356 352 353 355 355 355 356 356 354 355 354 354 352 347 344 337 334 329 322 319 319 320 319 319 317
355 357 357 354 353 359 359 361 359 356 359 359 356 353 357 358 353 353 360 355 354 356 356 355 354 351 348 344 341 334 330 324 319 319 320 320 316 316
360 359 358 357 359 359 360 358 356 354 354 359 359 361 355 352 355 354 355 353 355 355 355 356 355 352 346 345 343 335 331 324 320 318 321 320 317 315
359 359 360 360 359 359 359 360 361 358 359 360 358 356 358 357 354 348 348 351 349 350 352 355 353 350 346 346 341 334 331 325 322 319 320 320 317 316
359 362 361 361 361 360 361 362 361 362 364 364 363 361 355 352 350 353 352 350 353 356 354 351 351 349 346 346 341 331 329 325 322 319 320 320 315 315
362 362 363 363 361 361 363 364 364 364 362 358 357 356 356 355 356 355 356 355 357 358 358 354 350 348 344 342 340 334 326 323 322 320 319 315 315 316
360 361 361 360 360 360 359 359 358 359 360 361 361 361 360 358 358 359 360 360 359 358 356 353 347 347 347 341 336 335 330 323 321 317 315 314 313 312
360 359 359 361 360 359 359 359 359 358 358 358 359 359 359 358 359 362 360 359 358 356 354 351 348 346 345 343 339 333 327 324 321 313 312 310 309 309
357 356 357 359 358 356 355 355 355 356 356 357 357 357 356 355 356 356 357 357 354 345 353 348 349 346 343 338 334 330 327 323 312 311 309 309 309 308
357 358 359 359 358 357 357 357 358 358 358 359 358 358 357 357 357 356 356 353 353 353 349 348 344 341 338 334 332 329 325 315 312 309 309 309 309 309
357 356 355 355 354 354 355 357 358 359 360 361 359 358 360 360 358 359 358 354 353 349 349 345 340 338 330 325 325 326 320 314 310 309 309 309 310 312
358 357 356 355 356 356 356 355 357 357 358 359 361 360 359 359 358 357 355 356 356 356 351 345 339 333 331 324 325 322 319 315 311 310 311 311 314 312
354 357 358 358 357 357 358 356 355 354 354 354 356 357 358 358 358 356 356 355 355 354 352 346 341 335 328 325 325 323 319 321 318 315 318 316 315 312
354 357 359 359 358 357 357 358 356 354 354 355 357 358 359 358 357 358 354 353 351 347 344 342 339 336 330 326 322 321 321 319 318 319 321 319 316 314
347 350 353 355 355 357 360 358 356 356 356 357 359 360 358 357 357 358 353 348 343 339 336 334 333 331 327 323 320 321 320 320 323 323 320 316 317 316
342 344 346 353 357 358 357 357 355 356 355 356 356 357 357 357 358 355 352 345 340 336 331 329 328 326 325 324 320 321 319 322 323 322 318 317 316 314
341 344 348 346 344 344 345 348 351 352 353 353 354 355 357 358 356 356 348 345 338 338 334 329 325 323 321 322 322 320 322 324 321 317 315 317 313 311
336 335 334 333 333 333 333 334 336 339 341 344 349 355 357 357 356 354 348 343 338 337 334 331 325 323 322 325 322 319 321 322 321 317 316 316 313 311
332 332 329 327 326 324 324 325 327 330 331 333 337 341 347 353 354 351 344 342 340 337 334 330 327 325 327 327 322 320 322 320 320 318 316 314 310 307
330 329 325 323 321 320 320 320 321 322 323 326 329 332 337 345 351 352 348 345 341 337 335 329 331 329 327 321 319 315 313 315 316 318 316 313 309 308
328 327 324 321 317 318 319 319 319 319 320 322 325 327 330 335 343 348 347 343 340 338 336 334 332 328 325 322 321 317 311 310 312 311 312 311 314 315
324 323 322 319 318 317 317 316 316 317 318 318 321 327 328 329 334 337 343 344 339 337 336 335 329 327 326 324 323 319 314 309 307 307 305 306 306 305
Wind_Speed
11 11 12 12 11 10 11 11 9 3 4 18 20 18 14 13 15 20 22 25 24 26 25 23 22 20 16 16 16 19 17 16 13 11 11 10 9 10
10 12 14 11 15 13 13 13 14 15 5 17 21 17 23 23 24 25 23 25 26 23 22 22 20 18 17 15 17 18 18 18 15 12 12 12 11 12
11 12 12 13 16 15 13 12 15 17 14 19 22 27 26 27 26 28 22 26 28 23 22 21 20 13 16 15 16 19 19 18 17 14 13 12 12 13
16 15 16 15 17 18 17 17 17 19 22 21 26 24 24 30 30 30 29 31 27 27 30 23 17 16 12 13 16 19 20 18 18 16 13 13 14 13
22 22 21 20 20 19 19 20 20 21 21 21 25 29 30 29 29 29 26 20 23 27 17 15 13 14 10 11 15 19 20 18 17 16 14 15 16 16
21 18 20 22 24 23 22 22 23 25 24 24 24 22 24 28 27 26 29 28 24 19 22 5 13 10 10 10 12 17 18 17 16 15 14 16 15 13
24 22 22 23 24 24 22 22 21 21 21 23 25 23 26 24 22 27 24 26 24 17 18 19 11 8 8 8 12 12 16 17 14 13 13 11 10 11
27 26 25 26 26 26 28 31 34 35 31 26 24 22 26 27 26 24 23 21 13 15 20 8 4 9 13 12 9 7 7 13 11 10 8 8 8 8
25 25 26 26 28 30 33 33 35 38 39 40 31 32 31 33 29 26 25 23 23 29 27 12 10 10 8 11 11 7 7 10 10 8 6 5 5 5
29 31 31 28 29 32 34 33 30 29 30 30 32 34 34 37 36 34 30 27 22 25 25 7 10 6 7 8 6 7 8 7 8 6 6 5 5 6
30 31 32 31 34 36 34 34 33 34 32 32 31 32 34 35 35 35 32 16 12 20 12 6 4 4 6 6 8 6 5 8 8 8 7 6 7 10
29 31 33 36 36 36 38 36 29 31 28 27 28 29 27 31 31 26 27 17 12 2 8 9 6 4 0 1 7 6 6 9 9 8 7 8 8 9
27 27 27 20 14 27 42 41 32 33 29 25 22 23 25 26 24 19 20 17 16 8 8 12 7 5 3 2 4 9 8 5 12 12 12 11 6 4
29 28 22 23 21 23 26 25 22 27 33 29 23 23 24 24 22 19 19 11 9 13 10 11 6 7 6 4 1 9 16 7 11 15 13 12 10 6
6 14 20 22 20 21 25 23 17 19 23 20 20 22 21 21 20 18 12 7 5 5 6 13 10 6 8 6 5 7 8 13 14 15 19 9 9 7
12 14 16 17 20 23 19 14 16 23 23 18 20 23 25 22 17 15 11 6 2 4 5 7 6 6 10 9 6 6 9 4 7 12 8 4 5 9
19 15 14 14 15 17 18 16 18 16 15 19 23 26 24 19 15 14 12 10 6 5 6 6 5 8 8 9 9 10 10 9 5 10 8 5 11 8
10 12 14 14 16 18 18 17 15 16 19 21 22 23 22 18 17 18 14 14 12 9 11 9 9 7 6 9 12 10 9 3 12 11 6 11 12 6
8 9 11 13 13 13 16 17 17 18 19 19 19 19 21 20 16 18 19 16 13 9 13 12 14 10 4 3 5 17 13 3 14 11 9 6 16 10
4 4 6 8 10 11 13 15 16 17 16 19 22 23 24 20 18 16 20 16 11 10 14 15 16 17 10 4 5 8 18 13 3 8 16 16 13 9
3 3 3 4 6 9 11 13 14 14 13 14 16 18 21 22 22 18 15 13 11 15 13 18 19 16 13 8 5 6 7 12 4 6 13 13 12 11
6 6 5 4 5 7 10 12 13 15 17 16 16 17 17 20 19 7 10 14 17 14 14 12 14 18 16 15 10 11 12 10 10 6 7 4 5 7
4 5 6 5 5 6 8 10 12 15 18 19 19 17 18 19 20 17 13 12 13 13 12 12 14 18 14 16 12 13 12 14 13 9 5 4 0 1
Wind_Direction
245 258 257 255 255 259 266 270 277 293 294 307 316 318 319 318 315 306 305 301 303 303 301 298 294 288 287 268 252 240 241 243 252 253 251 250 261 244
245 249 248 255 268 256 253 254 259 257 266 288 293 308 314 308 298 295 286 286 296 308 293 290 285 282 282 271 250 239 240 241 247 255 259 259 262 249
232 255 242 261 273 283 283 279 266 257 264 290 294 302 297 300 305 299 279 288 294 300 293 289 279 282 287 281 255 239 235 240 242 251 258 257 266 257
227 234 241 248 256 262 270 283 283 282 278 279 287 296 300 304 302 299 290 295 288 290 298 284 277 277 289 278 262 240 235 237 241 247 258 262 263 266
236 232 236 237 245 253 262 272 281 288 288 293 291 293 291 297 302 314 311 331 324 313 311 278 270 288 273 296 271 242 237 235 243 244 262 263 274 267
250 249 243 241 244 247 250 256 266 270 274 276 276 286 303 306 310 314 319 313 320 327 318 253 296 273 277 296 283 255 251 241 242 243 265 272 273 264
249 250 253 254 253 253 251 255 260 271 278 285 282 288 290 300 300 300 301 307 312 311 312 317 308 295 295 295 290 265 247 245 242 249 269 271 272 262
249 252 255 255 257 257 257 258 260 261 262 264 273 276 280 286 291 293 295 306 309 302 307 298 270 291 293 275 294 285 253 243 241 256 257 267 274 275
247 248 250 249 256 258 260 261 262 261 263 262 263 269 277 281 284 284 290 297 298 315 317 298 311 311 270 251 252 251 235 226 234 250 258 263 271 282
252 253 256 258 259 264 270 273 274 275 275 277 277 281 282 285 282 285 287 286 296 303 296 263 298 307 268 262 267 272 254 224 222 233 254 253 263 277
253 254 255 260 263 265 266 268 267 268 271 272 275 279 281 286 286 287 284 264 277 277 273 244 255 256 265 256 266 267 257 213 224 231 239 253 276 290
258 255 256 258 263 267 260 258 260 262 268 274 281 283 285 286 292 295 305 302 286 256 242 203 206 218 53 9 237 220 221 217 229 234 248 259 280 308
257 258 255 255 267 265 264 262 257 267 274 278 280 285 288 288 291 292 290 290 291 288 259 198 199 200 212 238 271 199 193 198 225 232 241 248 260 289
261 260 269 283 287 288 291 293 287 273 269 273 275 278 282 289 298 297 285 301 293 270 264 229 209 201 182 178 206 189 199 254 240 238 251 241 226 239
284 269 272 282 296 304 296 291 285 267 268 261 262 269 276 291 300 284 267 290 278 278 268 220 240 231 201 178 159 170 215 237 243 246 228 224 224 214
302 310 300 290 289 291 293 302 284 270 269 255 266 275 289 292 283 260 264 239 265 274 251 248 241 225 204 198 200 208 234 232 235 188 163 155 201 163
324 330 330 314 300 305 302 287 286 293 296 290 287 289 287 286 258 240 220 226 210 201 216 229 225 213 218 216 212 227 219 279 225 179 155 91 118 136
345 354 6 21 18 10 6 2 350 342 332 321 308 298 285 275 282 228 212 234 222 188 188 203 195 199 223 240 223 216 241 213 161 159 146 134 121 119
31 7 12 1 1 355 351 345 340 330 322 322 337 325 312 290 278 205 207 222 218 200 200 202 197 192 184 224 202 211 231 219 169 164 151 183 144 137
63 40 20 4 5 358 350 343 335 337 336 333 329 325 314 309 290 210 193 215 226 197 188 197 206 206 214 202 190 198 216 231 272 192 143 135 133 133
46 66 53 39 14 6 357 350 344 344 348 340 332 331 325 317 295 212 218 234 216 191 187 195 226 225 214 179 162 167 178 199 198 132 151 161 164 164
355 357 22 29 12 16 9 0 358 0 360 357 357 355 348 346 330 290 233 213 208 199 199 227 210 202 203 195 198 169 170 171 188 172 155 147 160 189
5 351 352 0 348 5 5 359 358 356 356 356 1 6 358 353 342 344 302 229 207 203 199 196 195 193 205 202 205 171 170 173 171 168 126 143 159 230